Aurora, OR

11:13 PM PST on December 16, 2017 (GMT -0800)
Aurora State

Weather History for KUAO - August, 2013

Change the Weather History Date:

Monday, August 26, 2013

  Actual Average Record
Temperature  
Mean Temperature 68 °F -  
Max Temperature 79 °F - 96 °F (2016)
Min Temperature 58 °F - 50 °F (2015)
Degree Days  
Heating Degree Days 0    
Month to date heating degree days 5  
Since 1 June heating degree days 90  
Since 1 July heating degree days 10  
Cooling Degree Days 4    
Month to date cooling degree days 121  
Year to date cooling degree days 329  
Since 1 June cooling degree days 314  
Growing Degree Days 18 (Base 50)    
Moisture  
Dew Point 56 °F    
Average Humidity 65    
Maximum Humidity 97    
Minimum Humidity 33    
Precipitation  
Precipitation 0.04 in - 1.05 in (1956)
Month to date precipitation 0.30  
Year to date precipitation 13.27  
Sea Level Pressure  
Sea Level Pressure 29.93 in    
Wind  
Wind Speed 6 mph (SSW)    
Max Wind Speed 21 mph    
Max Gust Speed 26 mph    
Visibility 10 miles    
Events Rain    
T = Trace of Precipitation, MM = Missing Value Source: NWS Daily Summary

Daily Weather History Graph

Daily Weather History Graph

Search for Another Location

Airport or City:

Trip Planner

Search our weather history database for the weather conditions in past years. The results will help you decide how hot, cold, wet, or windy it might be!

Date:

Astronomy

Aug. 26, 2013 Rise Set
Actual Time 6:25 AM PDT 7:58 PM PDT
Civil Twilight 5:55 AM PDT 8:29 PM PDT
Nautical Twilight 5:17 AM PDT 9:06 PM PDT
Astronomical Twilight 4:37 AM PDT 9:46 PM PDT
Moon 10:53 PM PDT (8/26) 12:52 PM PDT (8/26)
Length of Visible Light 14h 34m
Length of Day
13h 32m
Waning Gibbous, 65% of the Moon is Illuminated
Aug 26
Waning Gibbous
Aug 28
Last Quarter
Sep 5
New
Sep 12
First Quarter
Sep 19
Full

Hourly Weather History & Observations

Time (PDT) Temp. Dew Point Humidity Pressure Visibility Wind Dir Wind Speed Gust Speed Precip Events Conditions
12:53 AM 61.0 °F 59.0 °F 93% 29.92 in 10.0 mi SSW 3.5 mph - N/A   Overcast
1:53 AM 61.0 °F 59.0 °F 93% 29.92 in 10.0 mi SSE 3.5 mph - N/A   Overcast
2:53 AM 61.0 °F 57.9 °F 90% 29.92 in 10.0 mi Calm Calm - N/A   Overcast
3:05 AM 60.8 °F 59.0 °F 94% 29.92 in 10.0 mi Calm Calm - N/A   Overcast
3:25 AM 60.8 °F 57.2 °F 88% 29.92 in 10.0 mi Calm Calm - N/A   Overcast
3:53 AM 60.1 °F 57.9 °F 93% 29.92 in 10.0 mi Calm Calm - N/A   Scattered Clouds
4:02 AM 60.8 °F 57.2 °F 88% 29.92 in 10.0 mi Calm Calm - N/A   Mostly Cloudy
4:53 AM 60.1 °F 57.9 °F 93% 29.93 in 10.0 mi Calm Calm - N/A   Mostly Cloudy
5:53 AM 59.0 °F 57.9 °F 96% 29.93 in 10.0 mi Calm Calm - N/A   Overcast
6:05 AM 59.0 °F 57.2 °F 94% 29.93 in 10.0 mi Calm Calm - N/A   Overcast
6:53 AM 59.0 °F 57.0 °F 93% 29.94 in 10.0 mi South 4.6 mph - N/A   Scattered Clouds
7:53 AM 60.1 °F 57.9 °F 93% 29.94 in 10.0 mi South 5.8 mph - N/A   Overcast
8:23 AM 62.6 °F 57.2 °F 82% 29.93 in 10.0 mi South 4.6 mph - N/A   Overcast
8:41 AM 62.6 °F 57.2 °F 82% 29.93 in 10.0 mi SW 3.5 mph - N/A   Overcast
8:53 AM 62.1 °F 57.9 °F 86% 29.93 in 10.0 mi WSW 3.5 mph - N/A   Overcast
9:07 AM 62.6 °F 57.2 °F 82% 29.94 in 10.0 mi SW 5.8 mph - N/A   Overcast
9:53 AM 66.0 °F 57.9 °F 75% 29.93 in 10.0 mi South 4.6 mph - N/A   Partly Cloudy
10:53 AM 66.9 °F 57.9 °F 73% 29.94 in 10.0 mi SW 5.8 mph - N/A   Mostly Cloudy
11:25 AM 71.6 °F 57.2 °F 60% 29.93 in 10.0 mi SSW 11.5 mph 18.4 mph N/A   Scattered Clouds
11:53 AM 72.0 °F 55.9 °F 57% 29.93 in 10.0 mi South 11.5 mph 18.4 mph N/A   Scattered Clouds
12:53 PM 75.9 °F 52.0 °F 43% 29.92 in 10.0 mi South 20.7 mph 26.5 mph N/A   Partly Cloudy
1:53 PM 75.0 °F 48.0 °F 38% 29.92 in 10.0 mi SSW 12.7 mph 20.7 mph N/A   Clear
2:53 PM 77.0 °F 46.9 °F 34% 29.91 in 10.0 mi SSW 11.5 mph 26.5 mph N/A   Partly Cloudy
3:53 PM 77.0 °F 46.9 °F 34% 29.91 in 10.0 mi SSW 13.8 mph 20.7 mph N/A   Mostly Cloudy
4:53 PM 73.9 °F 48.0 °F 40% 29.92 in 10.0 mi WSW 10.4 mph - N/A   Overcast
5:53 PM 70.0 °F 51.1 °F 51% 29.93 in 10.0 mi Variable 3.5 mph - N/A   Overcast
6:53 PM 68.0 °F 52.0 °F 56% 29.95 in 10.0 mi WSW 5.8 mph - 0.00 in Rain Light Rain
7:53 PM 64.9 °F 57.0 °F 75% 29.96 in 10.0 mi South 6.9 mph - 0.01 in Rain Light Rain
8:53 PM 63.0 °F 60.1 °F 90% 29.98 in 9.0 mi South 5.8 mph - 0.03 in Rain Light Rain
9:53 PM 62.1 °F 59.0 °F 90% 29.98 in 10.0 mi SSW 4.6 mph - 0.00 in   Overcast
10:53 PM 62.1 °F 59.0 °F 90% 29.98 in 10.0 mi Calm Calm - 0.00 in   Overcast
11:53 PM 62.1 °F 59.0 °F 90% 29.97 in 10.0 mi Calm Calm - 0.00 in Rain Light Rain